owner,sensor,date,latitude,longitude,vertical_datum,wind_speed,wind_to_direction,wind_speed_of_gust,qcFlag 
TABS,ioos:station:wmo:42044:1,2010-09-01T00:00:00Z,26.1914,-97.0507,0.0,3.584326994,121.0737616,5.03,'11111222,11111222,11111222' 
TABS,ioos:station:wmo:42044:1,2010-09-01T00:30:00Z,26.1914,-97.0507,0.0,3.408254685,74.86244884,4.29,'11111222,11111222,11111222' 
TABS,ioos:station:wmo:42044:1,2010-09-01T01:00:00Z,26.1914,-97.0507,0.0,3.677227216,76.79477723,4.49,'11111222,11111222,11111222' 
TABS,ioos:station:wmo:42044:1,2010-09-01T01:30:00Z,26.1914,-97.0507,0.0,3.710660319,88.91865742,5.01,'11111222,11111222,11111222' 
TABS,ioos:station:wmo:42044:1,2010-09-01T02:00:00Z,26.1914,-97.0507,0.0,3.611384776,104.267506,4.72,'11111222,11111222,11111222' 
TABS,ioos:station:wmo:42044:1,2010-09-01T02:30:00Z,26.1914,-97.0507,0.0,4.254092148,103.8733035,5.46,'11111222,11111222,11111222' 
TABS,ioos:station:wmo:42044:1,2010-09-01T03:00:00Z,26.1914,-97.0507,0.0,3.976946065,115.1478093,5.46,'11111222,11111222,11111222' 
TABS,ioos:station:wmo:42044:1,2010-09-01T03:30:00Z,26.1914,-97.0507,0.0,4.148795006,114.3414539,5.19,'11111222,11111222,11111222' 
TABS,ioos:station:wmo:42044:1,2010-09-01T04:00:00Z,26.1914,-97.0507,0.0,3.633895981,122.6408359,4.69,'11111222,11111222,11111222' 
TABS,ioos:station:wmo:42044:1,2010-09-01T04:30:00Z,26.1914,-97.0507,0.0,4.347746543,117.685244,5.77,'11111222,11111222,11111222' 
TABS,ioos:station:wmo:42044:1,2010-09-01T05:00:00Z,26.1914,-97.0507,0.0,4.214700464,119.7283711,5.8,'11111222,11111222,11111222' 
TABS,ioos:station:wmo:42044:1,2010-09-01T05:30:00Z,26.1914,-97.0507,0.0,4.03725154,129.1699125,5.2,'11111222,11111222,11111222' 
TABS,ioos:station:wmo:42044:1,2010-09-01T06:00:00Z,26.1914,-97.0507,0.0,3.663181677,131.3481014,4.81,'11111222,11111222,11111222' 
TABS,ioos:station:wmo:42044:1,2010-09-01T06:30:00Z,26.1914,-97.0507,0.0,3.132682557,135.6469659,4.08,'11111222,11111222,11111222' 
TABS,ioos:station:wmo:42044:1,2010-09-01T07:00:00Z,26.1914,-97.0507,0.0,2.308679276,148.1001281,2.97,'11111222,11111222,11111222' 
TABS,ioos:station:wmo:42044:1,2010-09-01T07:30:00Z,26.1914,-97.0507,0.0,2.848508382,138.7008501,3.92,'11111222,11111222,11111222' 
TABS,ioos:station:wmo:42044:1,2010-09-01T08:00:00Z,26.1914,-97.0507,0.0,1.845480967,148.291086,2.37,'11111222,11111222,11111222' 
TABS,ioos:station:wmo:42044:1,2010-09-01T08:30:00Z,26.1914,-97.0507,0.0,1.505622795,175.0469646,2.23,'11111222,11111222,11111222' 
TABS,ioos:station:wmo:42044:1,2010-09-01T09:00:00Z,26.1914,-97.0507,0.0,0.975294827,164.5390289,1.37,'11111222,11111222,11111222' 
TABS,ioos:station:wmo:42044:1,2010-09-01T09:30:00Z,26.1914,-97.0507,0.0,1.73738309,95.2844087,2.42,'11111222,11111222,11111222' 
TABS,ioos:station:wmo:42044:1,2010-09-01T10:00:00Z,26.1914,-97.0507,0.0,0.992975327,99.27300101,1.7,'11111222,11111222,11111222' 
TABS,ioos:station:wmo:42044:1,2010-09-01T10:30:00Z,26.1914,-97.0507,0.0,0.706045324,37.51881563,1.14,'11111222,11111222,11111222' 
TABS,ioos:station:wmo:42044:1,2010-09-01T11:00:00Z,26.1914,-97.0507,0.0,0.977394496,70.26693573,1.64,'11111222,11111222,11111222' 
TABS,ioos:station:wmo:42044:1,2010-09-01T11:30:00Z,26.1914,-97.0507,0.0,1.284717868,94.9121976,1.94,'11111222,11111222,11111222' 
TABS,ioos:station:wmo:42044:1,2010-09-01T12:00:00Z,26.1914,-97.0507,0.0,0.931343116,93.07786912,1.52,'11111222,11111222,11111222' 
TABS,ioos:station:wmo:42044:1,2010-09-01T12:30:00Z,26.1914,-97.0507,0.0,0.857029754,78.55856197,1.36,'11111222,11111222,11111222' 
TABS,ioos:station:wmo:42044:1,2010-09-01T13:00:00Z,26.1914,-97.0507,0.0,1.269054766,49.15352769,1.69,'11111222,11111222,11111222' 
TABS,ioos:station:wmo:42044:1,2010-09-01T13:30:00Z,26.1914,-97.0507,0.0,1.923330445,44.99968431,2.36,'11111222,11111222,11111222' 
TABS,ioos:station:wmo:42044:1,2010-09-01T14:00:00Z,26.1914,-97.0507,0.0,1.578670327,54.79951006,2.21,'11111222,11111222,11111222' 
TABS,ioos:station:wmo:42044:1,2010-09-01T14:30:00Z,26.1914,-97.0507,0.0,1.569840756,55.90468086,2.02,'11111222,11111222,11111222' 
TABS,ioos:station:wmo:42044:1,2010-09-01T15:00:00Z,26.1914,-97.0507,0.0,1.424254191,48.70021871,2.05,'11111222,11111222,11111222' 
TABS,ioos:station:wmo:42044:1,2010-09-01T15:30:00Z,26.1914,-97.0507,0.0,2.04,61.92715779,2.66,'11111222,11111222,11111222' 
TABS,ioos:station:wmo:42044:1,2010-09-01T16:00:00Z,26.1914,-97.0507,0.0,1.501366045,76.51872079,2.03,'11111222,11111222,11111222' 
TABS,ioos:station:wmo:42044:1,2010-09-01T16:30:00Z,26.1914,-97.0507,0.0,1.141402646,78.88656453,1.74,'11111222,11111222,11111222' 
TABS,ioos:station:wmo:42044:1,2010-09-01T17:00:00Z,26.1914,-97.0507,0.0,1.33454112,72.10774379,2.03,'11111222,11111222,11111222' 
TABS,ioos:station:wmo:42044:1,2010-09-01T17:30:00Z,26.1914,-97.0507,0.0,1.176137747,52.25286196,1.81,'11111222,11111222,11111222' 
TABS,ioos:station:wmo:42044:1,2010-09-01T18:00:00Z,26.1914,-97.0507,0.0,1.236931688,39.09355701,2.01,'11111222,11111222,11111222' 
TABS,ioos:station:wmo:42044:1,2010-09-01T18:30:00Z,26.1914,-97.0507,0.0,1.40014285,68.19822058,2.14,'11111222,11111222,11111222' 
TABS,ioos:station:wmo:42044:1,2010-09-01T19:00:00Z,26.1914,-97.0507,0.0,0.753126815,79.28648111,1.45,'11111222,11111222,11111222' 
TABS,ioos:station:wmo:42044:1,2010-09-01T19:30:00Z,26.1914,-97.0507,0.0,2.093346603,115.4637064,2.83,'11111222,11111222,11111222' 
TABS,ioos:station:wmo:42044:1,2010-09-01T20:00:00Z,26.1914,-97.0507,0.0,3.109340766,103.7684792,4.1,'11111222,11111222,11111222' 
TABS,ioos:station:wmo:42044:1,2010-09-01T20:30:00Z,26.1914,-97.0507,0.0,3.527548724,97.16571289,4.63,'11111222,11111222,11111222' 
TABS,ioos:station:wmo:42044:1,2010-09-01T21:00:00Z,26.1914,-97.0507,0.0,4.022747817,110.8231401,4.89,'11111222,11111222,11111222' 
TABS,ioos:station:wmo:42044:1,2010-09-01T21:30:00Z,26.1914,-97.0507,0.0,4.093751336,106.7532486,5.13,'11111222,11111222,11111222' 
TABS,ioos:station:wmo:42044:1,2010-09-01T22:00:00Z,26.1914,-97.0507,0.0,4.381381061,91.43905025,5.61,'11111222,11111222,11111222' 
TABS,ioos:station:wmo:42044:1,2010-09-01T22:30:00Z,26.1914,-97.0507,0.0,3.940050761,89.70874074,5.24,'11111222,11111222,11111222' 
TABS,ioos:station:wmo:42044:1,2010-09-01T23:00:00Z,26.1914,-97.0507,0.0,4.693527458,83.14712534,5.61,'11111222,11111222,11111222' 
TABS,ioos:station:wmo:42044:1,2010-09-01T23:30:00Z,26.1914,-97.0507,0.0,4.83740633,85.137587,5.94,'11111222,11111222,11111222' 
TABS,ioos:station:wmo:42044:1,2010-09-02T00:00:00Z,26.1914,-97.0507,0.0,5.275035545,81.71588848,6.49,'11111222,11111222,11111222' 
TABS,ioos:station:wmo:42044:1,2010-09-02T00:30:00Z,26.1914,-97.0507,0.0,5.252389932,81.90034961,6.38,'11111222,11111222,11111222' 
TABS,ioos:station:wmo:42044:1,2010-09-02T01:00:00Z,26.1914,-97.0507,0.0,4.632493929,85.790604,5.83,'11111222,11111222,11111222' 
TABS,ioos:station:wmo:42044:1,2010-09-02T01:30:00Z,26.1914,-97.0507,0.0,5.00273925,80.21719493,6.27,'11111222,11111222,11111222' 
TABS,ioos:station:wmo:42044:1,2010-09-02T02:00:00Z,26.1914,-97.0507,0.0,5.200086538,90.33096905,6.41,'11111222,11111222,11111222' 
TABS,ioos:station:wmo:42044:1,2010-09-02T02:30:00Z,26.1914,-97.0507,0.0,4.985278327,101.2201686,6.05,'11111222,11111222,11111222' 
TABS,ioos:station:wmo:42044:1,2010-09-02T03:00:00Z,26.1914,-97.0507,0.0,5.058942577,98.75517343,6.33,'11111222,11111222,11111222' 
TABS,ioos:station:wmo:42044:1,2010-09-02T03:30:00Z,26.1914,-97.0507,0.0,5.117430996,102.2984636,6.28,'11111222,11111222,11111222' 
TABS,ioos:station:wmo:42044:1,2010-09-02T04:00:00Z,26.1914,-97.0507,0.0,5.435678431,103.29523,6.64,'11111222,11111222,11111222' 
TABS,ioos:station:wmo:42044:1,2010-09-02T04:30:00Z,26.1914,-97.0507,0.0,4.850773134,98.29754648,5.98,'11111222,11111222,11111222' 
TABS,ioos:station:wmo:42044:1,2010-09-02T05:00:00Z,26.1914,-97.0507,0.0,4.737815953,102.804657,6.11,'11111222,11111222,11111222' 
TABS,ioos:station:wmo:42044:1,2010-09-02T05:30:00Z,26.1914,-97.0507,0.0,4.82578491,107.9847804,5.89,'11111222,11111222,11111222' 
TABS,ioos:station:wmo:42044:1,2010-09-02T06:00:00Z,26.1914,-97.0507,0.0,3.926537915,116.6306669,5.04,'11111222,11111222,11111222' 
TABS,ioos:station:wmo:42044:1,2010-09-02T06:30:00Z,26.1914,-97.0507,0.0,3.42379906,122.1121607,4.33,'11111222,11111222,11111222' 
TABS,ioos:station:wmo:42044:1,2010-09-02T07:00:00Z,26.1914,-97.0507,0.0,4.393005805,130.1064854,5.55,'11111222,11111222,11111222' 
TABS,ioos:station:wmo:42044:1,2010-09-02T07:30:00Z,26.1914,-97.0507,0.0,4.314904402,130.1119262,5.66,'11111222,11111222,11111222' 
TABS,ioos:station:wmo:42044:1,2010-09-02T08:00:00Z,26.1914,-97.0507,0.0,4.353263144,140.3126939,6.13,'11111222,11111222,11111222' 
TABS,ioos:station:wmo:42044:1,2010-09-02T08:30:00Z,26.1914,-97.0507,0.0,2.75436018,124.4981497,3.8,'11111222,11111222,11111222' 
TABS,ioos:station:wmo:42044:1,2010-09-02T09:00:00Z,26.1914,-97.0507,0.0,2.158633827,132.5596835,2.84,'11111222,11111222,11111222' 
TABS,ioos:station:wmo:42044:1,2010-09-02T09:30:00Z,26.1914,-97.0507,0.0,4.354044097,166.8576756,6.05,'11111222,11111222,11111222' 
TABS,ioos:station:wmo:42044:1,2010-09-02T10:00:00Z,26.1914,-97.0507,0.0,3.034023731,142.9037859,3.95,'11111222,11111222,11111222' 
TABS,ioos:station:wmo:42044:1,2010-09-02T10:30:00Z,26.1914,-97.0507,0.0,4.182487298,119.5073517,5.55,'11111222,11111222,11111222' 
TABS,ioos:station:wmo:42044:1,2010-09-02T11:00:00Z,26.1914,-97.0507,0.0,3.713448532,136.4187751,4.66,'11111222,11111222,11111222' 
TABS,ioos:station:wmo:42044:1,2010-09-02T11:30:00Z,26.1914,-97.0507,0.0,3.413209633,131.9126716,4.38,'11111222,11111222,11111222' 
TABS,ioos:station:wmo:42044:1,2010-09-02T12:00:00Z,26.1914,-97.0507,0.0,3.100741847,121.2810025,4.23,'11111222,11111222,11111222' 
TABS,ioos:station:wmo:42044:1,2010-09-02T12:30:00Z,26.1914,-97.0507,0.0,3.832192584,165.4925906,4.59,'11111222,11111222,11111222' 
TABS,ioos:station:wmo:42044:1,2010-09-02T13:00:00Z,26.1914,-97.0507,0.0,2.793313445,169.8971971,3.6,'11111222,11111222,11111222' 
TABS,ioos:station:wmo:42044:1,2010-09-02T13:30:00Z,26.1914,-97.0507,0.0,2.023388247,164.5216085,2.77,'11111222,11111222,11111222' 
TABS,ioos:station:wmo:42044:1,2010-09-02T14:00:00Z,26.1914,-97.0507,0.0,1.670119756,180.6863531,2.14,'11111222,11111222,11111222' 
TABS,ioos:station:wmo:42044:1,2010-09-02T14:30:00Z,26.1914,-97.0507,0.0,1.051189802,207.7840719,1.85,'11111222,11111222,11111222' 
TABS,ioos:station:wmo:42044:1,2010-09-02T15:00:00Z,26.1914,-97.0507,0.0,0.241867732,299.7448117,0.81,'11111222,11111222,11111222' 
TABS,ioos:station:wmo:42044:1,2010-09-02T15:30:00Z,26.1914,-97.0507,0.0,0.959635347,33.5241844,2.47,'11111222,11111222,11111222' 
TABS,ioos:station:wmo:42044:1,2010-09-02T16:00:00Z,26.1914,-97.0507,0.0,2.495776432,64.35863322,3.71,'11111222,11111222,11111222' 
TABS,ioos:station:wmo:42044:1,2010-09-02T16:30:00Z,26.1914,-97.0507,0.0,2.615836386,34.72256776,3.52,'11111222,11111222,11111222' 
TABS,ioos:station:wmo:42044:1,2010-09-02T17:00:00Z,26.1914,-97.0507,0.0,2.022003956,30.62329996,2.65,'11111222,11111222,11111222' 
TABS,ioos:station:wmo:42044:1,2010-09-02T17:30:00Z,26.1914,-97.0507,0.0,4.005646015,163.4654113,5.69,'11111222,11111222,11111222' 
TABS,ioos:station:wmo:42044:1,2010-09-02T18:00:00Z,26.1914,-97.0507,0.0,1.99812412,121.7017765,3.01,'11111222,11111222,11111222' 
TABS,ioos:station:wmo:42044:1,2010-09-02T18:30:00Z,26.1914,-97.0507,0.0,3.000433302,85.22009034,3.67,'11111222,11111222,11111222' 
TABS,ioos:station:wmo:42044:1,2010-09-02T19:00:00Z,26.1914,-97.0507,0.0,1.896760396,94.8393084,2.78,'11111222,11111222,11111222' 
TABS,ioos:station:wmo:42044:1,2010-09-02T19:30:00Z,26.1914,-97.0507,0.0,1.363084737,104.4444229,2.09,'11111222,11111222,11111222' 
TABS,ioos:station:wmo:42044:1,2010-09-02T20:00:00Z,26.1914,-97.0507,0.0,1.924396009,86.12609842,2.67,'11111222,11111222,11111222' 
TABS,ioos:station:wmo:42044:1,2010-09-02T20:30:00Z,26.1914,-97.0507,0.0,2.872368361,105.3429781,3.72,'11111222,11111222,11111222' 
TABS,ioos:station:wmo:42044:1,2010-09-02T21:00:00Z,26.1914,-97.0507,0.0,3.162846819,104.6517452,4.23,'11111222,11111222,11111222' 
TABS,ioos:station:wmo:42044:1,2010-09-02T21:30:00Z,26.1914,-97.0507,0.0,3.343411431,105.6162273,4.29,'11111222,11111222,11111222' 
TABS,ioos:station:wmo:42044:1,2010-09-02T22:00:00Z,26.1914,-97.0507,0.0,4.077266241,101.172531,5.3,'11111222,11111222,11111222' 
TABS,ioos:station:wmo:42044:1,2010-09-02T22:30:00Z,26.1914,-97.0507,0.0,4.472001789,98.74656273,5.51,'11111222,11111222,11111222' 
TABS,ioos:station:wmo:42044:1,2010-09-02T23:00:00Z,26.1914,-97.0507,0.0,4.886112975,105.430342,6.31,'11111222,11111222,11111222' 
TABS,ioos:station:wmo:42044:1,2010-09-02T23:30:00Z,26.1914,-97.0507,0.0,5.409482415,98.50498027,6.71,'11111222,11111222,11111222' 
TABS,ioos:station:wmo:42044:1,2010-09-03T00:00:00Z,26.1914,-97.0507,0.0,4.768280613,103.8326296,6.06,'11111222,11111222,11111222' 
TABS,ioos:station:wmo:42044:1,2010-09-03T00:30:00Z,26.1914,-97.0507,0.0,4.950686821,103.194522,6.59,'11111222,11111222,11111222' 
TABS,ioos:station:wmo:42044:1,2010-09-03T01:00:00Z,26.1914,-97.0507,0.0,4.699978723,96.47522082,6.05,'11111222,11111222,11111222' 
TABS,ioos:station:wmo:42044:1,2010-09-03T01:30:00Z,26.1914,-97.0507,0.0,4.598304035,107.7260633,6.0,'11111222,11111222,11111222' 
TABS,ioos:station:wmo:42044:1,2010-09-03T02:00:00Z,26.1914,-97.0507,0.0,5.159321661,114.6281345,6.66,'11111222,11111222,11111222' 
TABS,ioos:station:wmo:42044:1,2010-09-03T02:30:00Z,26.1914,-97.0507,0.0,4.463227532,116.3357693,6.14,'11111222,11111222,11111222' 
TABS,ioos:station:wmo:42044:1,2010-09-03T03:00:00Z,26.1914,-97.0507,0.0,5.26343044,118.8540689,6.74,'11111222,11111222,11111222' 
TABS,ioos:station:wmo:42044:1,2010-09-03T03:30:00Z,26.1914,-97.0507,0.0,5.03358719,118.3473664,6.51,'11111222,11111222,11111222' 
TABS,ioos:station:wmo:42044:1,2010-09-03T04:00:00Z,26.1914,-97.0507,0.0,4.774107246,119.626146,6.02,'11111222,11111222,11111222' 
TABS,ioos:station:wmo:42044:1,2010-09-03T04:30:00Z,26.1914,-97.0507,0.0,4.172589124,116.9338656,5.35,'11111222,11111222,11111222' 
TABS,ioos:station:wmo:42044:1,2010-09-03T05:00:00Z,26.1914,-97.0507,0.0,4.266626302,122.4612379,5.46,'11111222,11111222,11111222' 
TABS,ioos:station:wmo:42044:1,2010-09-03T05:30:00Z,26.1914,-97.0507,0.0,3.971750244,123.2903069,5.01,'11111222,11111222,11111222' 
TABS,ioos:station:wmo:42044:1,2010-09-03T06:00:00Z,26.1914,-97.0507,0.0,3.995322265,131.5504979,4.9,'11111222,11111222,11111222' 
TABS,ioos:station:wmo:42044:1,2010-09-03T06:30:00Z,26.1914,-97.0507,0.0,4.083833983,132.5193871,5.1,'11111222,11111222,11111222' 
TABS,ioos:station:wmo:42044:1,2010-09-03T07:00:00Z,26.1914,-97.0507,0.0,3.837421009,129.2897359,5.04,'11111222,11111222,11111222' 
TABS,ioos:station:wmo:42044:1,2010-09-03T07:30:00Z,26.1914,-97.0507,0.0,3.461517008,124.2872177,4.69,'11111222,11111222,11111222' 
TABS,ioos:station:wmo:42044:1,2010-09-03T08:00:00Z,26.1914,-97.0507,0.0,3.567085645,128.2838593,4.52,'11111222,11111222,11111222' 
TABS,ioos:station:wmo:42044:1,2010-09-03T08:30:00Z,26.1914,-97.0507,0.0,3.780820017,124.6571557,4.86,'11111222,11111222,11111222' 
TABS,ioos:station:wmo:42044:1,2010-09-03T09:00:00Z,26.1914,-97.0507,0.0,3.675350323,122.7824038,4.62,'11111222,11111222,11111222' 
TABS,ioos:station:wmo:42044:1,2010-09-03T09:30:00Z,26.1914,-97.0507,0.0,2.576897359,105.7625318,3.28,'11111222,11111222,11111222' 
TABS,ioos:station:wmo:42044:1,2010-09-03T10:00:00Z,26.1914,-97.0507,0.0,2.969208649,101.4617021,3.68,'11111222,11111222,11111222' 
TABS,ioos:station:wmo:42044:1,2010-09-03T10:30:00Z,26.1914,-97.0507,0.0,3.625093102,189.0467671,4.68,'11111222,11111222,11111222' 
TABS,ioos:station:wmo:42044:1,2010-09-03T11:00:00Z,26.1914,-97.0507,0.0,1.243905141,155.2894688,1.82,'11111222,11111222,11111222' 
TABS,ioos:station:wmo:42044:1,2010-09-03T11:30:00Z,26.1914,-97.0507,0.0,2.406345777,120.1882314,3.8,'11111222,11111222,11111222' 
TABS,ioos:station:wmo:42044:1,2010-09-03T12:00:00Z,26.1914,-97.0507,0.0,3.204886893,106.6825025,4.11,'11111222,11111222,11111222' 
TABS,ioos:station:wmo:42044:1,2010-09-03T12:30:00Z,26.1914,-97.0507,0.0,3.043106965,114.4599007,4.15,'11111222,11111222,11111222' 
TABS,ioos:station:wmo:42044:1,2010-09-03T13:00:00Z,26.1914,-97.0507,0.0,2.420433845,110.3070672,3.29,'11111222,11111222,11111222' 
TABS,ioos:station:wmo:42044:1,2010-09-03T13:30:00Z,26.1914,-97.0507,0.0,2.220360331,107.2928299,2.95,'11111222,11111222,11111222' 
TABS,ioos:station:wmo:42044:1,2010-09-03T14:00:00Z,26.1914,-97.0507,0.0,1.838613608,103.2052228,2.64,'11111222,11111222,11111222' 
TABS,ioos:station:wmo:42044:1,2010-09-03T14:30:00Z,26.1914,-97.0507,0.0,1.320340865,88.69762945,1.88,'11111222,11111222,11111222' 
TABS,ioos:station:wmo:42044:1,2010-09-03T15:00:00Z,26.1914,-97.0507,0.0,1.853240405,68.14081013,2.62,'11111222,11111222,11111222' 
TABS,ioos:station:wmo:42044:1,2010-09-03T15:30:00Z,26.1914,-97.0507,0.0,2.253619311,58.42546217,3.21,'11111222,11111222,11111222' 
TABS,ioos:station:wmo:42044:1,2010-09-03T16:00:00Z,26.1914,-97.0507,0.0,2.591389589,59.37716214,3.51,'11111222,11111222,11111222' 
TABS,ioos:station:wmo:42044:1,2010-09-03T16:30:00Z,26.1914,-97.0507,0.0,2.789587783,60.58595236,3.57,'11111222,11111222,11111222' 
TABS,ioos:station:wmo:42044:1,2010-09-03T17:00:00Z,26.1914,-97.0507,0.0,2.991671773,88.08405075,3.68,'11111222,11111222,11111222' 
TABS,ioos:station:wmo:42044:1,2010-09-03T17:30:00Z,26.1914,-97.0507,0.0,2.977045515,101.2348387,3.79,'11111222,11111222,11111222' 
TABS,ioos:station:wmo:42044:1,2010-09-03T18:00:00Z,26.1914,-97.0507,0.0,2.749618155,79.09833692,3.5,'11111222,11111222,11111222' 
TABS,ioos:station:wmo:42044:1,2010-09-03T18:30:00Z,26.1914,-97.0507,0.0,2.580426321,63.53388914,3.58,'11111222,11111222,11111222' 
TABS,ioos:station:wmo:42044:1,2010-09-03T19:00:00Z,26.1914,-97.0507,0.0,3.141973902,58.53550903,4.11,'11111222,11111222,11111222' 
TABS,ioos:station:wmo:42044:1,2010-09-03T19:30:00Z,26.1914,-97.0507,0.0,4.485554592,63.37746577,5.62,'11111222,11111222,11111222' 
TABS,ioos:station:wmo:42044:1,2010-09-03T20:00:00Z,26.1914,-97.0507,0.0,5.23637279,56.37028486,6.5,'11111222,11111222,11111222' 
TABS,ioos:station:wmo:42044:1,2010-09-03T20:30:00Z,26.1914,-97.0507,0.0,5.081830379,60.6603192,6.51,'11111222,11111222,11111222' 
TABS,ioos:station:wmo:42044:1,2010-09-03T21:00:00Z,26.1914,-97.0507,0.0,4.813865391,54.72487008,5.99,'11111222,11111222,11111222' 
TABS,ioos:station:wmo:42044:1,2010-09-03T21:30:00Z,26.1914,-97.0507,0.0,5.196402602,54.87214756,6.8,'11111222,11111222,11111222' 
TABS,ioos:station:wmo:42044:1,2010-09-03T22:00:00Z,26.1914,-97.0507,0.0,4.73725659,56.71212923,5.99,'11111222,11111222,11111222' 
TABS,ioos:station:wmo:42044:1,2010-09-03T22:30:00Z,26.1914,-97.0507,0.0,4.261044473,61.0887062,5.28,'11111222,11111222,11111222' 
TABS,ioos:station:wmo:42044:1,2010-09-03T23:00:00Z,26.1914,-97.0507,0.0,4.849907216,54.73664981,6.16,'11111222,11111222,11111222' 
TABS,ioos:station:wmo:42044:1,2010-09-03T23:30:00Z,26.1914,-97.0507,0.0,5.041448205,72.57101785,6.38,'11111222,11111222,11111222' 
TABS,ioos:station:wmo:42044:1,2010-09-04T00:00:00Z,26.1914,-97.0507,0.0,4.312702169,60.40307325,5.46,'11111222,11111222,11111222' 
TABS,ioos:station:wmo:42044:1,2010-09-04T00:30:00Z,26.1914,-97.0507,0.0,4.102316419,59.37123354,5.16,'11111222,11111222,11111222' 
TABS,ioos:station:wmo:42044:1,2010-09-04T01:00:00Z,26.1914,-97.0507,0.0,4.861985191,73.01818722,6.89,'11111222,11111222,11111222' 
TABS,ioos:station:wmo:42044:1,2010-09-04T01:30:00Z,26.1914,-97.0507,0.0,4.260105632,56.19768492,5.55,'11111222,11111222,11111222' 
TABS,ioos:station:wmo:42044:1,2010-09-04T02:00:00Z,26.1914,-97.0507,0.0,4.378173135,48.51828755,5.67,'11111222,11111222,11111222' 
TABS,ioos:station:wmo:42044:1,2010-09-04T02:30:00Z,26.1914,-97.0507,0.0,4.999649988,45.72900957,6.5,'11111222,11111222,11111222' 
TABS,ioos:station:wmo:42044:1,2010-09-04T03:00:00Z,26.1914,-97.0507,0.0,5.316474396,72.48486933,7.48,'11111222,11111222,11111222' 
TABS,ioos:station:wmo:42044:1,2010-09-04T03:30:00Z,26.1914,-97.0507,0.0,4.611474818,69.16728528,5.87,'11111222,11111222,11111222' 
TABS,ioos:station:wmo:42044:1,2010-09-04T04:00:00Z,26.1914,-97.0507,0.0,4.424160937,69.35263654,5.45,'11111222,11111222,11111222' 
TABS,ioos:station:wmo:42044:1,2010-09-04T04:30:00Z,26.1914,-97.0507,0.0,4.526201498,67.11685548,6.03,'11111222,11111222,11111222' 
TABS,ioos:station:wmo:42044:1,2010-09-04T05:00:00Z,26.1914,-97.0507,0.0,3.778094758,79.93891281,4.6,'11111222,11111222,11111222' 
TABS,ioos:station:wmo:42044:1,2010-09-04T05:30:00Z,26.1914,-97.0507,0.0,3.476147293,81.72963683,4.51,'11111222,11111222,11111222' 
TABS,ioos:station:wmo:42044:1,2010-09-04T06:00:00Z,26.1914,-97.0507,0.0,6.207253821,92.77063024,8.9,'11111222,11111222,11111222' 
TABS,ioos:station:wmo:42044:1,2010-09-04T06:30:00Z,26.1914,-97.0507,0.0,3.069657961,43.6797417,4.1,'11111222,11111222,11111222' 
TABS,ioos:station:wmo:42044:1,2010-09-04T07:00:00Z,26.1914,-97.0507,0.0,3.676370493,51.07212652,6.87,'11111222,11111222,11111222' 
TABS,ioos:station:wmo:42044:1,2010-09-04T07:30:00Z,26.1914,-97.0507,0.0,1.676305461,35.7757836,2.34,'11111222,11111222,11111222' 
TABS,ioos:station:wmo:42044:1,2010-09-04T08:00:00Z,26.1914,-97.0507,0.0,3.655584769,65.2573369,4.97,'11111222,11111222,11111222' 
TABS,ioos:station:wmo:42044:1,2010-09-04T08:30:00Z,26.1914,-97.0507,0.0,3.596720729,54.27680196,4.44,'11111222,11111222,11111222' 
TABS,ioos:station:wmo:42044:1,2010-09-04T09:00:00Z,26.1914,-97.0507,0.0,6.095326078,81.60362458,8.89,'11111222,11111222,11111222' 
TABS,ioos:station:wmo:42044:1,2010-09-04T09:30:00Z,26.1914,-97.0507,0.0,0.577234788,104.0366316,3.19,'11111222,11111222,11111222' 
TABS,ioos:station:wmo:42044:1,2010-09-04T10:00:00Z,26.1914,-97.0507,0.0,2.385372088,69.8933913,5.39,'11111222,11111222,11111222' 
TABS,ioos:station:wmo:42044:1,2010-09-04T10:30:00Z,26.1914,-97.0507,0.0,2.804442904,299.9475376,4.46,'11111222,11111222,11111222' 
TABS,ioos:station:wmo:42044:1,2010-09-04T11:00:00Z,26.1914,-97.0507,0.0,2.407072911,351.3984248,3.7,'11111222,11111222,11111222' 
TABS,ioos:station:wmo:42044:1,2010-09-04T11:30:00Z,26.1914,-97.0507,0.0,1.489597261,287.5834408,2.51,'11111222,11111222,11111222' 
TABS,ioos:station:wmo:42044:1,2010-09-04T12:00:00Z,26.1914,-97.0507,0.0,1.76102243,271.9525045,4.94,'11111222,11111222,11111222' 
TABS,ioos:station:wmo:42044:1,2010-09-04T12:30:00Z,26.1914,-97.0507,0.0,6.034608521,334.7936714,7.68,'11111222,11111222,11111222' 
TABS,ioos:station:wmo:42044:1,2010-09-04T13:00:00Z,26.1914,-97.0507,0.0,2.986904752,352.3037558,4.73,'11111222,11111222,11111222' 
TABS,ioos:station:wmo:42044:1,2010-09-04T13:30:00Z,26.1914,-97.0507,0.0,4.527703612,275.0683917,5.79,'11111222,11111222,11111222' 
TABS,ioos:station:wmo:42044:1,2010-09-04T14:00:00Z,26.1914,-97.0507,0.0,3.25714599,288.4349057,4.31,'11111222,11111222,11111222' 
TABS,ioos:station:wmo:42044:1,2010-09-04T14:30:00Z,26.1914,-97.0507,0.0,0.237065392,27.64570026,2.8,'11111222,11111222,11111222' 
TABS,ioos:station:wmo:42044:1,2010-09-04T15:00:00Z,26.1914,-97.0507,0.0,0.593043,264.1932867,2.77,'11111222,11111222,11111222' 
TABS,ioos:station:wmo:42044:1,2010-09-04T15:30:00Z,26.1914,-97.0507,0.0,2.558065675,296.4648219,4.78,'11111222,11111222,11111222' 
TABS,ioos:station:wmo:42044:1,2010-09-04T16:00:00Z,26.1914,-97.0507,0.0,5.326434079,26.17992699,6.58,'11111222,11111222,11111222' 
TABS,ioos:station:wmo:42044:1,2010-09-04T16:30:00Z,26.1914,-97.0507,0.0,4.494552258,26.27972799,5.89,'11111222,11111222,11111222' 
TABS,ioos:station:wmo:42044:1,2010-09-04T17:00:00Z,26.1914,-97.0507,0.0,6.134313328,37.44870254,10.42,'11111222,11111222,11111222' 
TABS,ioos:station:wmo:42044:1,2010-09-04T17:30:00Z,26.1914,-97.0507,0.0,5.670079365,31.58735803,7.56,'11111222,11111222,11111222' 
TABS,ioos:station:wmo:42044:1,2010-09-04T18:00:00Z,26.1914,-97.0507,0.0,4.858446254,16.00994388,6.27,'11111222,11111222,11111222' 
TABS,ioos:station:wmo:42044:1,2010-09-04T18:30:00Z,26.1914,-97.0507,0.0,4.057351353,342.0561049,5.61,'11111222,11111222,11111222' 